GALAXY 3C (G-3C)        
1 27445U 02030A   19258.59558978 -.00000160  00000-0  00000+0 0  9995
2 27445   0.0371 294.1085 0001386  33.8175 145.7116  1.00269650 63226
BLOCK DM-SL R/B         
1 27446U 02030B   19258.76793090  .00000220  00000-0  61841-3 0  9991
2 27446   0.4831 256.0444 7498693 300.4468 109.2839  1.95035742122459